Tracking 29493 objects as of 8-Sep-2024
HD Live streaming from Space Station
objects crossing your sky now

FENGYUN 1C DEB

Track FENGYUN 1C DEB now!
10-day predictions


NORAD ID: 31332
Int'l Code: 1999-025BQL
Perigee: 832.3 km
Apogee: 905.1 km
Inclination: 98.7 °
Period: 102.2 minutes
Semi major axis: 7239 km
RCS: 0.0119 m2 (small)
Launch date: May 10, 1999
Source: People's Republic of China (PRC)
Launch site: Taiyaun Space Center, China (TSC)

Note: This is SATELLITE DEBRIS
Your satellite tracking list
Your tracking list is empty




NASA's NSSDC Master Catalog

Two Line Element Set (TLE):
1 31332U 99025BQL 24251.87285971  .00005670  00000-0  32362-2 0  9994
2 31332  98.7295 269.9093 0050263 251.2348 231.4394 14.09370294894739
Source of the keplerian elements: AFSPC